Aalto-2 (42729 NORAD) Tracking and Keplerian Element Data

This shows tracking and keplerian element data for the satellite.

Feedback or suggestion? Click here.




ElementValue
Catalog42729
NameAalto-2
Epoch Orbit9657
Epoch Day31.78435913
Epoch Year2019
RAAN246.2247
Inclination51.6163
Eccentricity0.0006031
Argument of Perigee247.4805
Mean Anonmoly112.5572
Mean Motion16.13176058
Decay Rate0.00691774
L11 42729U 98067MJ 19031.78435913 .00691774 28218-3 57668-3 0 9991
L22 42729 51.6163 246.2247 0006031 247.4805 112.5572 16.13176058 96573

Live tracking and technical data element details for Aalto-2 (NORAD 42729). Aalto-2 can be tracked NOW for your location showing map with azimuth and elevation plus other details from your city location.

Track the satellite on the map from your city or location and see movement details for azimuth, elevation, latitude, longitude, range, height, and movement on the map or in text.







IsCatalogInMostPopularTable: catalog: 42729, numindb: 254
Update: records affected: 1



GetName: 42729 Aalto-2

Hit Count: updated at: Tue, 23 Apr 2019 02:44:17 GMT